WZZ640D OEJN-OMAA

Flight info

Callsign WZZ640D
Flight time 2h 9m
Altitude 33000
Route EGREP T532 KODIS Y214 RAPMA/N0465F290 Y214 KUVSO DCT RIBOT M550 GOLGU M318 ATUDO
Aircraft A321/M-SDE3FGHIRWY/LB1

Departure

Time 2026-05-07 15:55
Airport King Abdulaziz International Airport (OEJN)

Arrival

Time 2026-05-07 18:05
Airport Zayed International Airport (OMAA)
Time Latitude Longitude Altitude Speed Heading
2026-05-07 15:31 21.66453 39.16841 35 ft 0 kts 340°
2026-05-07 15:44 21.66429 39.16849 34 ft 4 kts 345°
2026-05-07 15:44 21.66403 39.16857 34 ft 4 kts 340°
2026-05-07 15:44 21.66385 39.16867 35 ft 4 kts 270°
2026-05-07 15:44 21.66385 39.16871 35 ft 0 kts 250°
2026-05-07 15:49 21.66383 39.16866 35 ft 1 kts 250°
2026-05-07 15:49 21.66374 39.16836 34 ft 8 kts 250°
2026-05-07 15:49 21.66354 39.16778 35 ft 9 kts 252°
2026-05-07 15:49 21.66332 39.16718 34 ft 9 kts 245°
2026-05-07 15:50 21.66307 39.16658 35 ft 9 kts 234°
2026-05-07 15:50 21.66251 39.16636 35 ft 9 kts 175°
2026-05-07 15:50 21.66195 39.16637 35 ft 5 kts 197°
2026-05-07 15:50 21.66183 39.16629 35 ft 0 kts 217°
2026-05-07 15:51 21.66183 39.16628 35 ft 0 kts 226°
2026-05-07 15:51 21.66183 39.16627 35 ft 0 kts 234°
2026-05-07 15:52 21.66168 39.16585 35 ft 14 kts 249°
2026-05-07 15:52 21.66156 39.16480 33 ft 14 kts 312°
2026-05-07 15:52 21.66186 39.16460 33 ft 0 kts 337°
2026-05-07 15:54 21.66273 39.16425 33 ft 42 kts 340°
2026-05-07 15:54 21.66764 39.16227 35 ft 104 kts 339°
2026-05-07 15:55 21.67618 39.15895 31 ft 154 kts 340°
2026-05-07 15:55 21.68699 39.15476 393 ft 164 kts 340°
2026-05-07 15:55 21.69748 39.15081 1101 ft 158 kts 341°
2026-05-07 15:55 21.70787 39.14672 1670 ft 160 kts 341°
2026-05-07 15:56 21.71887 39.14236 1985 ft 179 kts 341°
2026-05-07 15:56 21.73122 39.13746 2187 ft 198 kts 340°
2026-05-07 15:56 21.74465 39.13212 2314 ft 213 kts 341°
2026-05-07 15:56 21.75916 39.12638 2419 ft 231 kts 340°
2026-05-07 15:57 21.77494 39.12012 2530 ft 252 kts 339°
2026-05-07 15:57 21.79183 39.11341 2846 ft 263 kts 340°
2026-05-07 15:57 21.80931 39.10645 3252 ft 272 kts 339°
2026-05-07 15:57 21.82726 39.09932 3715 ft 277 kts 339°
2026-05-07 15:58 21.84548 39.09211 4187 ft 281 kts 339°
2026-05-07 15:58 21.86399 39.08478 4689 ft 285 kts 339°
2026-05-07 15:58 21.88273 39.07734 5178 ft 288 kts 339°
2026-05-07 15:58 21.90149 39.06980 5774 ft 288 kts 338°
2026-05-07 15:59 21.91973 39.06166 5969 ft 287 kts 336°
2026-05-07 15:59 21.93862 39.05544 6074 ft 284 kts 356°
2026-05-07 15:59 21.95818 39.05803 6268 ft 287 kts 21°
2026-05-07 15:59 21.97525 39.06894 6760 ft 289 kts 43°
2026-05-07 16:00 21.98790 39.08599 7207 ft 294 kts 55°
2026-05-07 16:00 21.99959 39.10415 7648 ft 298 kts 55°
2026-05-07 16:00 22.01149 39.12278 8085 ft 304 kts 54°
2026-05-07 16:00 22.02352 39.14161 8596 ft 306 kts 54°
2026-05-07 16:01 22.03566 39.16059 9106 ft 309 kts 54°
2026-05-07 16:01 22.04794 39.17979 9591 ft 313 kts 54°
2026-05-07 16:01 22.06030 39.19915 10100 ft 315 kts 55°
2026-05-07 16:01 22.07305 39.21911 10243 ft 332 kts 55°
2026-05-07 16:02 22.08648 39.24009 10367 ft 349 kts 55°
2026-05-07 16:02 22.10057 39.26209 10485 ft 365 kts 54°
2026-05-07 16:02 22.11530 39.28505 10602 ft 380 kts 55°
2026-05-07 16:02 22.13062 39.30895 10731 ft 394 kts 55°
2026-05-07 16:03 22.14634 39.33357 10987 ft 403 kts 55°
2026-05-07 16:03 22.16232 39.35863 11383 ft 407 kts 56°
2026-05-07 16:03 22.17838 39.38386 11847 ft 409 kts 56°
2026-05-07 16:03 22.19456 39.40925 12309 ft 412 kts 56°
2026-05-07 16:04 22.21086 39.43483 12749 ft 415 kts 56°
2026-05-07 16:04 22.22706 39.46029 13175 ft 419 kts 56°
2026-05-07 16:04 22.24366 39.48636 13604 ft 423 kts 56°
2026-05-07 16:04 22.26040 39.51266 14028 ft 427 kts 56°
2026-05-07 16:05 22.27728 39.53920 14443 ft 430 kts 56°
2026-05-07 16:05 22.29426 39.56588 14879 ft 432 kts 56°
2026-05-07 16:05 22.31130 39.59269 15358 ft 434 kts 56°
2026-05-07 16:05 22.32844 39.61967 15803 ft 437 kts 56°
2026-05-07 16:06 22.34568 39.64681 16215 ft 441 kts 56°
2026-05-07 16:06 22.36309 39.67423 16655 ft 444 kts 56°
2026-05-07 16:06 22.38061 39.70182 17098 ft 447 kts 56°
2026-05-07 16:06 22.39828 39.72967 17525 ft 450 kts 56°
2026-05-07 16:07 22.41606 39.75767 17926 ft 453 kts 56°
2026-05-07 16:07 22.43397 39.78591 18342 ft 457 kts 56°
2026-05-07 16:07 22.45192 39.81429 18676 ft 458 kts 55°
2026-05-07 16:07 22.47207 39.84109 19034 ft 460 kts 45°
2026-05-07 16:08 22.49562 39.86450 19394 ft 461 kts 40°
2026-05-07 16:08 22.51979 39.88742 19753 ft 463 kts 40°
2026-05-07 16:08 22.54408 39.91050 20069 ft 466 kts 40°
2026-05-07 16:08 22.56851 39.93377 20394 ft 469 kts 40°
2026-05-07 16:09 22.59301 39.95712 20746 ft 471 kts 40°
2026-05-07 16:09 22.61760 39.98059 21066 ft 473 kts 40°
2026-05-07 16:09 22.64235 40.00424 21371 ft 475 kts 40°
2026-05-07 16:09 22.66717 40.02798 21677 ft 477 kts 40°
2026-05-07 16:10 22.69208 40.05183 21999 ft 479 kts 40°
2026-05-07 16:10 22.71674 40.07546 22318 ft 481 kts 40°
2026-05-07 16:10 22.74215 40.09985 22622 ft 483 kts 40°
2026-05-07 16:10 22.76705 40.12374 22886 ft 486 kts 40°
2026-05-07 16:11 22.79250 40.14820 23024 ft 492 kts 40°
2026-05-07 16:11 22.81824 40.17292 23168 ft 497 kts 40°
2026-05-07 16:11 22.84421 40.19785 23382 ft 500 kts 40°
2026-05-07 16:11 22.87034 40.22293 23620 ft 502 kts 40°
2026-05-07 16:12 22.89656 40.24806 23819 ft 505 kts 40°
2026-05-07 16:12 22.92297 40.27343 23930 ft 510 kts 40°
2026-05-07 16:12 22.94967 40.29916 24041 ft 515 kts 40°
2026-05-07 16:12 22.97643 40.32497 24235 ft 517 kts 40°
2026-05-07 16:13 23.00335 40.35094 24532 ft 517 kts 40°
2026-05-07 16:13 23.03028 40.37687 24835 ft 517 kts 40°
2026-05-07 16:13 23.05720 40.40274 25119 ft 517 kts 40°
2026-05-07 16:13 23.08415 40.42866 25413 ft 518 kts 40°
2026-05-07 16:14 23.11115 40.45465 25727 ft 518 kts 40°
2026-05-07 16:14 23.13711 40.48187 26003 ft 519 kts 49°
2026-05-07 16:14 23.15776 40.51405 26254 ft 520 kts 63°
2026-05-07 16:14 23.17105 40.55039 26518 ft 517 kts 78°
2026-05-07 16:15 23.17893 40.58858 26805 ft 517 kts 80°
2026-05-07 16:15 23.18632 40.62681 27103 ft 517 kts 81°
2026-05-07 16:15 23.19353 40.66513 27426 ft 517 kts 81°
2026-05-07 16:15 23.20066 40.70343 27729 ft 517 kts 81°
2026-05-07 16:16 23.20778 40.74174 28059 ft 517 kts 81°
2026-05-07 16:16 23.21497 40.78007 28378 ft 517 kts 81°
2026-05-07 16:16 23.22219 40.81833 28704 ft 518 kts 81°
2026-05-07 16:16 23.22951 40.85672 28977 ft 519 kts 81°
2026-05-07 16:17 23.23687 40.89521 29273 ft 519 kts 81°
2026-05-07 16:17 23.24412 40.93315 29597 ft 518 kts 81°
2026-05-07 16:17 23.25139 40.97144 29987 ft 516 kts 81°
2026-05-07 16:17 23.25862 41.00968 30281 ft 516 kts 82°
2026-05-07 16:18 23.26581 41.04791 30529 ft 516 kts 82°
2026-05-07 16:18 23.27300 41.08619 30769 ft 516 kts 82°
2026-05-07 16:18 23.28019 41.12442 31001 ft 517 kts 82°
2026-05-07 16:18 23.28740 41.16274 31280 ft 515 kts 82°
2026-05-07 16:19 23.29458 41.20092 31572 ft 514 kts 82°
2026-05-07 16:19 23.30175 41.23902 31819 ft 515 kts 82°
2026-05-07 16:19 23.30891 41.27720 32045 ft 515 kts 82°
2026-05-07 16:19 23.31364 41.30250 32185 ft 516 kts 82°
2026-05-07 16:20 23.32078 41.34072 32379 ft 517 kts 82°
2026-05-07 16:20 23.32793 41.37902 32602 ft 517 kts 82°
2026-05-07 16:20 23.33509 41.41740 32816 ft 517 kts 82°
2026-05-07 16:20 23.34221 41.45575 33029 ft 518 kts 82°
2026-05-07 16:21 23.34933 41.49421 33226 ft 518 kts 83°
2026-05-07 16:21 23.35645 41.53271 33433 ft 519 kts 83°
2026-05-07 16:21 23.36356 41.57126 33609 ft 519 kts 83°
2026-05-07 16:21 23.37296 41.62217 33931 ft 518 kts 83°
2026-05-07 16:22 23.37777 41.64821 33995 ft 520 kts 83°
2026-05-07 16:22 23.39207 41.72572 34006 ft 524 kts 83°
2026-05-07 16:23 23.40643 41.80357 34001 ft 525 kts 83°
2026-05-07 16:23 23.42056 41.88096 34003 ft 524 kts 83°
2026-05-07 16:24 23.43477 41.95884 34008 ft 524 kts 83°
2026-05-07 16:24 23.44898 42.03671 34007 ft 523 kts 83°
2026-05-07 16:25 23.46313 42.11446 34033 ft 523 kts 83°
2026-05-07 16:25 23.47720 42.19211 34034 ft 522 kts 83°
2026-05-07 16:26 23.49112 42.26936 34041 ft 521 kts 83°
2026-05-07 16:26 23.50511 42.34683 34045 ft 521 kts 83°
2026-05-07 16:27 23.51899 42.42415 34030 ft 520 kts 83°
2026-05-07 16:27 23.53281 42.50160 34036 ft 520 kts 83°
2026-05-07 16:28 23.54665 42.57901 34043 ft 520 kts 83°
2026-05-07 16:28 23.56043 42.65644 34026 ft 520 kts 83°
2026-05-07 16:29 23.57409 42.73392 34031 ft 521 kts 83°
2026-05-07 16:29 23.58770 42.81149 34033 ft 521 kts 83°
2026-05-07 16:30 23.60135 42.88865 34040 ft 521 kts 83°
2026-05-07 16:30 23.61507 42.96628 34044 ft 521 kts 83°
2026-05-07 16:31 23.62866 43.04397 34042 ft 521 kts 83°
2026-05-07 16:31 23.64218 43.12146 34060 ft 520 kts 83°
2026-05-07 16:32 23.65575 43.19893 34059 ft 519 kts 83°
2026-05-07 16:32 23.66920 43.27628 34037 ft 519 kts 83°
2026-05-07 16:33 23.68251 43.35360 34030 ft 518 kts 83°
2026-05-07 16:33 23.69583 43.43094 34018 ft 518 kts 83°
2026-05-07 16:34 23.70916 43.50827 34012 ft 519 kts 83°
2026-05-07 16:34 23.72241 43.58575 34006 ft 520 kts 83°
2026-05-07 16:35 23.73568 43.66335 33996 ft 520 kts 83°
2026-05-07 16:35 23.74890 43.74088 33989 ft 520 kts 83°
2026-05-07 16:36 23.76197 43.81808 33985 ft 520 kts 83°
2026-05-07 16:36 23.77186 43.89603 33963 ft 514 kts 94°
2026-05-07 16:37 23.76756 43.97337 33952 ft 509 kts 100°
2026-05-07 16:37 23.76183 44.05053 33943 ft 510 kts 100°
2026-05-07 16:38 23.75616 44.12783 33952 ft 510 kts 100°
2026-05-07 16:38 23.75041 44.20491 33981 ft 509 kts 100°
2026-05-07 16:39 23.74453 44.28187 33956 ft 509 kts 101°
2026-05-07 16:39 23.73862 44.35889 33964 ft 509 kts 101°
2026-05-07 16:40 23.73278 44.43596 33946 ft 510 kts 101°
2026-05-07 16:40 23.72686 44.51306 33956 ft 510 kts 101°
2026-05-07 16:41 23.72084 44.58970 33956 ft 511 kts 101°
2026-05-07 16:41 23.71479 44.66697 33946 ft 511 kts 101°
2026-05-07 16:42 23.70871 44.74428 33951 ft 511 kts 101°
2026-05-07 16:42 23.70259 44.82151 33963 ft 511 kts 101°
2026-05-07 16:43 23.69648 44.89885 33963 ft 511 kts 101°
2026-05-07 16:43 23.69030 44.97616 33975 ft 511 kts 101°
2026-05-07 16:44 23.68404 45.05348 33947 ft 511 kts 101°
2026-05-07 16:44 23.67770 45.13084 33962 ft 511 kts 101°
2026-05-07 16:45 23.67135 45.20807 33968 ft 511 kts 101°
2026-05-07 16:45 23.66507 45.28483 33969 ft 511 kts 101°
2026-05-07 16:46 23.65872 45.36202 33965 ft 511 kts 101°
2026-05-07 16:46 23.65231 45.43917 33962 ft 511 kts 101°
2026-05-07 16:47 23.64584 45.51631 33954 ft 511 kts 101°
2026-05-07 16:47 23.63930 45.59346 33943 ft 511 kts 101°
2026-05-07 16:48 23.63267 45.67068 33946 ft 511 kts 101°
2026-05-07 16:48 23.62615 45.74730 33947 ft 511 kts 101°
2026-05-07 16:49 23.61963 45.82448 33941 ft 511 kts 101°
2026-05-07 16:49 23.61304 45.90161 33943 ft 511 kts 101°
2026-05-07 16:50 23.60628 45.97866 33950 ft 511 kts 101°
2026-05-07 16:50 23.59948 46.05570 33951 ft 510 kts 101°
2026-05-07 16:51 23.59275 46.13272 33952 ft 511 kts 101°
2026-05-07 16:51 23.58596 46.20988 33946 ft 511 kts 101°
2026-05-07 16:52 23.57904 46.28695 33954 ft 511 kts 101°
2026-05-07 16:52 23.57217 46.36411 33955 ft 511 kts 101°
2026-05-07 16:53 23.56532 46.44126 33958 ft 511 kts 101°
2026-05-07 16:53 23.55836 46.51793 33960 ft 511 kts 101°
2026-05-07 16:54 23.55129 46.59500 33934 ft 511 kts 101°
2026-05-07 16:54 23.54423 46.67197 33955 ft 510 kts 101°
2026-05-07 16:55 23.53720 46.74870 33951 ft 508 kts 101°
2026-05-07 16:55 23.53017 46.82522 33936 ft 507 kts 101°
2026-05-07 16:56 23.52311 46.90169 33934 ft 506 kts 101°
2026-05-07 16:56 23.51238 47.01618 33925 ft 506 kts 101°
2026-05-07 16:57 23.50517 47.09233 33921 ft 505 kts 101°
2026-05-07 16:57 23.49798 47.16807 33907 ft 505 kts 101°
2026-05-07 16:58 23.49075 47.24412 33905 ft 504 kts 101°
2026-05-07 16:58 23.48348 47.32017 33908 ft 504 kts 101°
2026-05-07 16:59 23.47623 47.39621 33907 ft 504 kts 101°
2026-05-07 16:59 23.46887 47.47218 33906 ft 504 kts 101°
2026-05-07 17:00 23.46141 47.54816 33907 ft 504 kts 101°
2026-05-07 17:00 23.45398 47.62400 33906 ft 504 kts 101°
2026-05-07 17:01 23.44662 47.69997 33897 ft 504 kts 100°
2026-05-07 17:01 23.43923 47.77533 33903 ft 503 kts 100°
2026-05-07 17:02 23.43169 47.85101 33899 ft 503 kts 100°
2026-05-07 17:02 23.42415 47.92665 33894 ft 502 kts 100°
2026-05-07 17:03 23.41660 48.00235 33896 ft 502 kts 100°
2026-05-07 17:03 23.40908 48.07794 33882 ft 502 kts 100°
2026-05-07 17:04 23.40145 48.15345 33874 ft 502 kts 100°
2026-05-07 17:04 23.39499 48.21623 33876 ft 502 kts 101°
2026-05-07 17:05 23.38594 48.30449 33874 ft 501 kts 100°
2026-05-07 17:05 23.37911 48.38005 33881 ft 502 kts 97°
2026-05-07 17:06 23.37652 48.44320 33868 ft 503 kts 95°
2026-05-07 17:06 23.37487 48.51935 33878 ft 503 kts 95°
2026-05-07 17:07 23.37252 48.59528 33867 ft 502 kts 96°
2026-05-07 17:07 23.36917 48.67107 33855 ft 501 kts 96°
2026-05-07 17:08 23.36563 48.74686 33855 ft 501 kts 96°
2026-05-07 17:08 23.36235 48.82220 33857 ft 501 kts 96°
2026-05-07 17:09 23.35925 48.89799 33854 ft 501 kts 96°
2026-05-07 17:09 23.35613 48.97375 33855 ft 500 kts 96°
2026-05-07 17:10 23.35274 49.04937 33856 ft 500 kts 96°
2026-05-07 17:10 23.34908 49.12498 33849 ft 499 kts 96°
2026-05-07 17:11 23.34513 49.20042 33847 ft 499 kts 97°
2026-05-07 17:11 23.34116 49.27532 33849 ft 499 kts 96°
2026-05-07 17:12 23.33714 49.35085 33848 ft 499 kts 97°
2026-05-07 17:12 23.33311 49.42634 33845 ft 499 kts 97°
2026-05-07 17:13 23.32903 49.50189 33847 ft 500 kts 97°
2026-05-07 17:13 23.32497 49.57732 33841 ft 499 kts 96°
2026-05-07 17:14 23.32087 49.65270 33844 ft 499 kts 96°
2026-05-07 17:14 23.31675 49.72797 33845 ft 498 kts 96°
2026-05-07 17:15 23.31251 49.80316 33847 ft 498 kts 96°
2026-05-07 17:15 23.30834 49.87802 33974 ft 498 kts 96°
2026-05-07 17:16 23.30622 49.91561 34186 ft 497 kts 96°
2026-05-07 17:16 23.30408 49.95312 34384 ft 496 kts 96°
2026-05-07 17:16 23.30191 49.99059 34566 ft 496 kts 96°
2026-05-07 17:16 23.29976 50.02799 34759 ft 496 kts 96°
2026-05-07 17:17 23.29550 50.10282 34829 ft 495 kts 96°
2026-05-07 17:17 23.29123 50.17764 34828 ft 495 kts 96°
2026-05-07 17:18 23.28684 50.25235 34819 ft 495 kts 96°
2026-05-07 17:18 23.28245 50.32701 34821 ft 494 kts 96°
2026-05-07 17:19 23.27807 50.40162 34825 ft 494 kts 96°
2026-05-07 17:19 23.27366 50.47580 34828 ft 494 kts 96°
2026-05-07 17:20 23.26917 50.55055 34829 ft 495 kts 96°
2026-05-07 17:20 23.26460 50.62536 34829 ft 495 kts 96°
2026-05-07 17:21 23.25994 50.70010 34833 ft 495 kts 96°
2026-05-07 17:21 23.25530 50.77484 34839 ft 495 kts 96°
2026-05-07 17:22 23.25064 50.84959 34831 ft 495 kts 96°
2026-05-07 17:22 23.24596 50.92440 34825 ft 495 kts 96°
2026-05-07 17:23 23.24132 50.99908 34835 ft 495 kts 96°
2026-05-07 17:23 23.23656 51.07363 34834 ft 494 kts 96°
2026-05-07 17:24 23.23170 51.14808 34833 ft 494 kts 96°
2026-05-07 17:24 23.22688 51.22206 34831 ft 494 kts 96°
2026-05-07 17:25 23.22206 51.29701 34830 ft 494 kts 96°
2026-05-07 17:25 23.21724 51.37138 34826 ft 493 kts 96°
2026-05-07 17:26 23.21231 51.44533 34831 ft 493 kts 96°
2026-05-07 17:26 23.20738 51.51966 34832 ft 493 kts 96°
2026-05-07 17:27 23.20246 51.59409 34830 ft 493 kts 96°
2026-05-07 17:27 23.19745 51.66843 34830 ft 493 kts 96°
2026-05-07 17:28 23.19243 51.74271 34833 ft 492 kts 96°
2026-05-07 17:28 23.18738 51.81684 34835 ft 492 kts 96°
2026-05-07 17:29 23.18220 51.89097 34835 ft 492 kts 96°
2026-05-07 17:29 23.17703 51.96503 34834 ft 491 kts 96°
2026-05-07 17:30 23.17185 52.03905 34834 ft 491 kts 96°
2026-05-07 17:30 23.16669 52.11273 34831 ft 491 kts 96°
2026-05-07 17:31 23.16138 52.18678 34831 ft 491 kts 96°
2026-05-07 17:31 23.15608 52.26082 34828 ft 492 kts 96°
2026-05-07 17:32 23.15083 52.33505 34832 ft 492 kts 96°
2026-05-07 17:32 23.14943 52.39672 34832 ft 493 kts 85°
2026-05-07 17:33 23.15781 52.44566 34830 ft 494 kts 73°
2026-05-07 17:33 23.16878 52.48106 34830 ft 494 kts 71°
2026-05-07 17:33 23.19636 52.54939 34823 ft 494 kts 60°
2026-05-07 17:34 23.23018 52.61458 34830 ft 494 kts 60°
2026-05-07 17:34 23.26360 52.67941 34829 ft 494 kts 60°
2026-05-07 17:35 23.29727 52.74468 34821 ft 494 kts 60°
2026-05-07 17:35 23.33083 52.80993 34833 ft 494 kts 60°
2026-05-07 17:36 23.36437 52.87535 34834 ft 494 kts 60°
2026-05-07 17:36 23.39785 52.94065 34836 ft 494 kts 60°
2026-05-07 17:37 23.43168 53.00575 34836 ft 494 kts 59°
2026-05-07 17:37 23.46620 53.06990 34839 ft 493 kts 59°
2026-05-07 17:38 23.50099 53.13435 34841 ft 493 kts 59°
2026-05-07 17:38 23.53547 53.19889 34840 ft 493 kts 59°
2026-05-07 17:39 23.56979 53.26356 34841 ft 492 kts 59°
2026-05-07 17:39 23.60407 53.32816 34839 ft 492 kts 59°
2026-05-07 17:40 23.63836 53.39274 34836 ft 492 kts 59°
2026-05-07 17:40 23.67260 53.45732 34834 ft 492 kts 59°
2026-05-07 17:41 23.70403 53.52347 34793 ft 491 kts 70°
2026-05-07 17:41 23.71576 53.55861 34014 ft 497 kts 70°
2026-05-07 17:41 23.72748 53.59437 33070 ft 503 kts 70°
2026-05-07 17:42 23.74011 53.62979 32695 ft 497 kts 67°
2026-05-07 17:42 23.75382 53.66440 32186 ft 498 kts 65°
2026-05-07 17:42 23.76844 53.69898 31263 ft 504 kts 64°
2026-05-07 17:42 23.78343 53.73323 31010 ft 494 kts 64°
2026-05-07 17:43 23.79801 53.76665 30769 ft 484 kts 64°
2026-05-07 17:43 23.81237 53.80025 29744 ft 494 kts 65°
2026-05-07 17:43 23.82666 53.83462 28750 ft 499 kts 65°
2026-05-07 17:43 23.84082 53.86938 27746 ft 504 kts 66°
2026-05-07 17:44 23.85508 53.90471 26611 ft 510 kts 66°
2026-05-07 17:44 23.86941 53.94025 25624 ft 512 kts 66°
2026-05-07 17:44 23.88371 53.97562 24956 ft 507 kts 66°
2026-05-07 17:44 23.89796 54.01072 24204 ft 504 kts 66°
2026-05-07 17:45 23.91216 54.04553 23478 ft 500 kts 66°
2026-05-07 17:45 23.92627 54.08004 22763 ft 495 kts 66°
2026-05-07 17:45 23.94021 54.11407 22156 ft 486 kts 66°
2026-05-07 17:45 23.95389 54.14757 21421 ft 480 kts 67°
2026-05-07 17:46 23.96740 54.18073 20757 ft 473 kts 67°
2026-05-07 17:46 23.98072 54.21344 20035 ft 469 kts 67°
2026-05-07 17:46 23.99386 54.24570 19363 ft 463 kts 67°
2026-05-07 17:46 24.00683 54.27763 18811 ft 455 kts 67°
2026-05-07 17:47 24.01946 54.30883 18126 ft 451 kts 67°
2026-05-07 17:47 24.03206 54.33994 17479 ft 443 kts 67°
2026-05-07 17:47 24.04450 54.37071 16747 ft 439 kts 67°
2026-05-07 17:47 24.05672 54.40094 16192 ft 431 kts 67°
2026-05-07 17:48 24.06879 54.43072 15625 ft 425 kts 67°
2026-05-07 17:48 24.08071 54.46014 15074 ft 420 kts 67°
2026-05-07 17:48 24.09249 54.48925 14527 ft 417 kts 67°
2026-05-07 17:48 24.10407 54.51796 14160 ft 408 kts 67°
2026-05-07 17:49 24.11549 54.54630 13596 ft 406 kts 67°
2026-05-07 17:49 24.12686 54.57456 12992 ft 403 kts 67°
2026-05-07 17:49 24.13810 54.60248 12414 ft 399 kts 67°
2026-05-07 17:49 24.14923 54.63012 11833 ft 395 kts 67°
2026-05-07 17:50 24.16027 54.65756 11249 ft 392 kts 67°
2026-05-07 17:50 24.17110 54.68446 11014 ft 378 kts 67°
2026-05-07 17:50 24.17803 54.70167 10934 ft 368 kts 67°
2026-05-07 17:50 24.18813 54.72677 10826 ft 353 kts 67°
2026-05-07 17:51 24.19781 54.75088 10702 ft 339 kts 68°
2026-05-07 17:51 24.20713 54.77410 10587 ft 327 kts 67°
2026-05-07 17:51 24.21611 54.79645 10479 ft 315 kts 67°
2026-05-07 17:51 24.22759 54.82509 10200 ft 305 kts 68°
2026-05-07 17:52 24.23329 54.83933 10126 ft 302 kts 68°
2026-05-07 17:52 24.24173 54.86042 10007 ft 302 kts 67°
2026-05-07 17:52 24.25300 54.88858 9460 ft 306 kts 68°
2026-05-07 17:52 24.25874 54.90293 9244 ft 304 kts 67°
2026-05-07 17:53 24.26720 54.92413 8877 ft 302 kts 67°
2026-05-07 17:53 24.27562 54.94523 8469 ft 302 kts 67°
2026-05-07 17:53 24.28400 54.96628 8075 ft 302 kts 67°
2026-05-07 17:53 24.29167 54.98745 7741 ft 298 kts 77°
2026-05-07 17:54 24.29355 55.00977 7431 ft 293 kts 96°
2026-05-07 17:54 24.28875 55.03133 7017 ft 293 kts 115°
2026-05-07 17:54 24.27783 55.05008 6650 ft 292 kts 129°
2026-05-07 17:54 24.26516 55.06757 6288 ft 292 kts 128°
2026-05-07 17:55 24.25256 55.08487 6029 ft 286 kts 131°
2026-05-07 17:55 24.23750 55.09710 5897 ft 267 kts 161°
2026-05-07 17:55 24.21979 55.09904 5808 ft 250 kts 192°
2026-05-07 17:55 24.20461 55.09125 5558 ft 239 kts 223°
2026-05-07 17:56 24.19529 55.07666 5196 ft 234 kts 251°
2026-05-07 17:56 24.19154 55.05933 4801 ft 233 kts 258°
2026-05-07 17:56 24.18904 55.04188 4293 ft 233 kts 270°
2026-05-07 17:56 24.19203 55.02472 4007 ft 227 kts 292°
2026-05-07 17:57 24.20030 55.01005 4015 ft 227 kts 307°
2026-05-07 17:57 24.20679 55.00100 4028 ft 229 kts 307°
2026-05-07 17:57 24.21991 54.98255 4015 ft 229 kts 304°
2026-05-07 17:57 24.22926 54.96842 3927 ft 228 kts 305°
2026-05-07 17:58 24.23856 54.95441 3795 ft 227 kts 304°
2026-05-07 17:58 24.24583 54.93945 3679 ft 226 kts 291°
2026-05-07 17:58 24.25160 54.92349 3559 ft 226 kts 294°
2026-05-07 17:58 24.26003 54.90895 3443 ft 227 kts 306°
2026-05-07 17:59 24.26882 54.89457 3328 ft 226 kts 299°
2026-05-07 17:59 24.27617 54.87988 3241 ft 217 kts 297°
2026-05-07 17:59 24.28311 54.86529 3134 ft 215 kts 297°
2026-05-07 17:59 24.29103 54.85142 3040 ft 214 kts 304°
2026-05-07 18:00 24.29993 54.83835 3005 ft 214 kts 307°
2026-05-07 18:00 24.30906 54.82549 3004 ft 212 kts 307°
2026-05-07 18:00 24.31775 54.81331 3016 ft 197 kts 307°
2026-05-07 18:00 24.32615 54.80152 2888 ft 195 kts 307°
2026-05-07 18:01 24.33439 54.78996 2669 ft 190 kts 306°
2026-05-07 18:01 24.34217 54.77904 2469 ft 174 kts 307°
2026-05-07 18:01 24.34949 54.76876 2249 ft 169 kts 306°
2026-05-07 18:01 24.35663 54.75872 2031 ft 165 kts 307°
2026-05-07 18:02 24.37058 54.73906 1607 ft 162 kts 308°
2026-05-07 18:02 24.37746 54.72936 1459 ft 158 kts 307°
2026-05-07 18:02 24.38400 54.72012 1267 ft 150 kts 308°
2026-05-07 18:03 24.39044 54.71117 1036 ft 148 kts 307°
2026-05-07 18:03 24.39655 54.70240 882 ft 146 kts 307°
2026-05-07 18:03 24.40260 54.69352 740 ft 144 kts 313°
2026-05-07 18:03 24.40893 54.68495 550 ft 146 kts 312°
2026-05-07 18:04 24.41520 54.67620 363 ft 145 kts 311°
2026-05-07 18:04 24.42143 54.66748 142 ft 145 kts 310°
2026-05-07 18:04 24.42743 54.65910 54 ft 126 kts 309°
2026-05-07 18:04 24.43177 54.65302 59 ft 76 kts 308°
2026-05-07 18:05 24.43361 54.65011 54 ft 25 kts 290°
2026-05-07 18:05 24.43400 54.64849 60 ft 20 kts 278°
2026-05-07 18:05 24.43418 54.64698 58 ft 20 kts 276°
2026-05-07 18:05 24.43437 54.64589 57 ft 14 kts 284°
2026-05-07 18:06 24.43476 54.64488 58 ft 15 kts 297°
2026-05-07 18:06 24.43535 54.64396 55 ft 15 kts 308°
2026-05-07 18:06 24.43599 54.64303 54 ft 15 kts 308°
2026-05-07 18:06 24.43665 54.64210 56 ft 16 kts 308°
2026-05-07 18:07 24.43734 54.64114 53 ft 16 kts 309°
2026-05-07 18:07 24.43809 54.64009 59 ft 20 kts 306°
2026-05-07 18:07 24.43903 54.63875 61 ft 25 kts 307°
2026-05-07 18:07 24.44022 54.63709 61 ft 29 kts 308°
2026-05-07 18:08 24.44115 54.63581 55 ft 12 kts 307°
2026-05-07 18:08 24.44167 54.63510 61 ft 10 kts 316°
2026-05-07 18:08 24.44219 54.63512 63 ft 8 kts 36°
2026-05-07 18:08 24.44268 54.63555 56 ft 10 kts 39°
2026-05-07 18:09 24.44322 54.63601 60 ft 10 kts 40°
2026-05-07 18:09 24.44378 54.63652 59 ft 11 kts 31°
2026-05-07 18:09 24.44438 54.63702 60 ft 9 kts 36°
2026-05-07 18:09 24.44451 54.63712 57 ft 0 kts 36°
2026-05-07 18:10 24.44455 54.63715 57 ft 3 kts 36°
2026-05-07 18:10 24.44482 54.63736 62 ft 5 kts 34°
2026-05-07 18:10 24.44517 54.63761 54 ft 7 kts 34°
2026-05-07 18:10 24.44544 54.63782 57 ft 0 kts 35°
2026-05-07 18:11 24.44549 54.63786 59 ft 4 kts 32°
2026-05-07 18:11 24.44584 54.63775 55 ft 13 kts 322°
2026-05-07 18:11 24.44683 54.63734 60 ft 0 kts 22°
2026-05-07 18:12 24.44699 54.63759 54 ft 8 kts 51°
2026-05-07 18:12 24.44744 54.63778 63 ft 6 kts
2026-05-07 18:12 24.44780 54.63779 60 ft 4 kts 359°
2026-05-07 18:12 24.44802 54.63780 57 ft 3 kts
2026-05-07 18:13 24.44816 54.63779 61 ft 2 kts 359°
2026-05-07 18:13 24.44821 54.63779 60 ft 0 kts 359°
2026-05-07 18:13 24.44822 54.63779 56 ft 1 kts 359°
2026-05-07 18:13 24.44824 54.63779 56 ft 0 kts 359°